CW0453 Weather Reports


Display with metric or nautical units.
time (UTC)temp
F
wind
direction
speed
MPH
gust
MPH
rain 1hr
in
rain 24hr
in
rain mn
in
humidity
%
barometer
mb
20170527134032 57 273 4.0 18.0 0.06 0.07 0.06 83 1014.5
20170527133534 58 244 11.0 22.0 0.04 0.05 0.04 79 1014.5
20170527133035 60 273 10.0 22.0 0.01 0.02 0.01 76 1014.3
20170527132536 61 211 9.0 31.0 0.00 0.01 0.00 70 1014.3
20170527132037 61 236 18.0 31.0 0.00 0.01 0.00 68 1013.7
20170527131039 62 262 3.0 5.0 0.00 0.01 0.00 65 1012.4
20170527130521 62 56 0.0 2.0 0.00 0.01 0.00 64 1012.0
20170527130040 62 61 0.0 4.0 0.00 0.01 0.00 62 1011.8
20170527125519 62 61 1.0 4.0 0.00 0.01 0.00 61 1011.8
20170527125021 63 56 1.0 3.0 0.00 0.01 0.00 62 1011.9
20170527124524 62 56 0.0 4.0 0.00 0.01 0.00 62 1011.9
20170527124025 62 50 1.0 4.0 0.00 0.01 0.00 62 1012.0
20170527123525 62 50 2.0 5.0 0.00 0.01 0.00 62 1012.0
20170527123024 62 49 2.0 5.0 0.00 0.01 0.00 62 1011.9
20170527122525 62 42 2.0 6.0 0.00 0.01 0.00 61 1011.9
20170527122027 62 47 3.0 7.0 0.00 0.01 0.00 61 1011.8
20170527121527 62 44 3.0 9.0 0.00 0.01 0.00 61 1011.8
20170527121028 62 49 4.0 9.0 0.00 0.01 0.00 62 1011.8
20170527120528 62 61 3.0 6.0 0.00 0.01 0.00 61 1012.0
20170527120030 61 64 1.0 5.0 0.00 0.01 0.00 62 1012.0
20170527115528 61 57 2.0 6.0 0.00 0.01 0.00 64 1011.9
20170527115028 61 46 2.0 6.0 0.00 0.01 0.00 63 1012.0
20170527114530 62 44 3.0 6.0 0.00 0.01 0.00 63 1012.0
20170527114030 62 35 4.0 6.0 0.00 0.01 0.00 60 1012.0
20170527113532 61 50 3.0 6.0 0.00 0.01 0.00 62 1012.0
20170527113032 61 70 2.0 6.0 0.00 0.01 0.00 62 1011.9
20170527112532 61 77 2.0 4.0 0.00 0.01 0.00 61 1011.8
20170527112033 61 89 1.0 3.0 0.00 0.01 0.00 62 1011.9
20170527111535 61 96 2.0 3.0 0.00 0.01 0.00 61 1011.9
20170527111036 61 96 1.0 3.0 0.00 0.01 0.00 61 1011.9
20170527110537 61 98 1.0 3.0 0.00 0.01 0.00 61 1011.8
20170527110020 61 108 0.0 3.0 0.00 0.01 0.00 61 1011.8
20170527105520 61 110 1.0 3.0 0.00 0.01 0.00 61 1011.9
20170527105023 62 112 2.0 4.0 0.00 0.01 0.00 61 1011.9
20170527104538 62 102 1.0 4.0 0.00 0.01 0.00 60 1012.0
20170527104021 62 350 1.0 7.0 0.00 0.01 0.00 61 1012.0
20170527103523 62 57 2.0 8.0 0.00 0.01 0.00 60 1011.9
20170527103024 62 56 2.0 6.0 0.00 0.01 0.00 61 1011.8
20170527102525 62 52 2.0 7.0 0.00 0.01 0.00 61 1011.8
20170527102028 62 63 3.0 7.0 0.00 0.01 0.00 61 1011.7
20170527101529 62 54 4.0 6.0 0.00 0.01 0.00 61 1011.7
20170527101031 62 47 3.0 10.0 0.00 0.01 0.00 61 1011.7
20170527100532 62 57 4.0 7.0 0.00 0.01 0.00 62 1011.7
20170527100033 62 43 4.0 8.0 0.00 0.01 0.00 61 1011.7
20170527095536 62 26 4.0 8.0 0.00 0.01 0.00 62 1011.6
20170527095039 62 48 4.0 10.0 0.00 0.01 0.00 62 1011.7
20170527094519 62 41 6.0 10.0 0.00 0.01 0.00 61 1011.7
20170527094022 62 65 5.0 7.0 0.00 0.01 0.00 61 1011.7
20170527093539 62 57 4.0 7.0 0.00 0.01 0.00 62 1011.7
20170527093019 62 55 3.0 10.0 0.00 0.01 0.00 62 1011.6
20170527092538 62 57 3.0 10.0 0.00 0.01 0.00 61 1011.6
20170527092039 62 43 5.0 10.0 0.00 0.01 0.00 61 1011.7
20170527091522 62 38 4.0 9.0 0.00 0.01 0.00 61 1011.8
20170527091025 62 36 4.0 6.0 0.00 0.01 0.00 61 1011.9
20170527090524 62 40 4.0 6.0 0.00 0.01 0.00 61 1011.9
20170527090026 62 38 3.0 9.0 0.00 0.01 0.00 61 1011.9
20170527085528 62 26 5.0 9.0 0.00 0.01 0.00 61 1012.0
20170527085029 62 40 3.0 9.0 0.00 0.01 0.00 61 1011.9
20170527084531 62 34 4.0 8.0 0.00 0.01 0.00 62 1012.0
20170527084034 62 26 4.0 9.0 0.00 0.01 0.00 61 1012.1
20170527083533 61 49 4.0 9.0 0.00 0.01 0.00 62 1012.0
20170527083031 61 34 3.0 9.0 0.00 0.01 0.00 63 1012.1
20170527082531 61 19 4.0 9.0 0.00 0.01 0.00 63 1012.2
20170527082033 61 20 4.0 6.0 0.00 0.01 0.00 63 1012.3
20170527081534 61 5 3.0 6.0 0.00 0.01 0.00 63 1012.3
20170527081035 61 16 4.0 6.0 0.00 0.01 0.00 61 1012.2
20170527080537 62 15 3.0 8.0 0.00 0.01 0.00 61 1012.2
20170527080039 63 5 4.0 8.0 0.00 0.01 0.00 60 1012.1
20170527075522 62 38 4.0 8.0 0.00 0.01 0.00 59 1012.1
20170527075024 62 37 4.0 8.0 0.00 0.01 0.00 59 1012.0
20170527074527 63 27 4.0 8.0 0.00 0.01 0.00 60 1012.1
20170527074028 63 32 4.0 8.0 0.00 0.01 0.00 60 1012.1
20170527073528 63 38 3.0 10.0 0.00 0.01 0.00 60 1012.2
20170527073030 63 33 4.0 7.0 0.00 0.01 0.00 60 1012.2
20170527072533 62 28 4.0 8.0 0.00 0.01 0.00 60 1012.2
20170527072030 62 14 4.0 8.0 0.00 0.01 0.00 60 1012.2
20170527071532 63 23 4.0 6.0 0.00 0.01 0.00 60 1012.2
20170527071033 63 36 4.0 6.0 0.00 0.01 0.00 60 1012.1
20170527070535 62 30 3.0 6.0 0.00 0.01 0.00 61 1012.1
20170527065524 63 25 3.0 6.0 0.00 0.01 0.00 60 1012.4
20170527065026 63 26 2.0 6.0 0.00 0.01 0.00 60 1012.3
20170527064528 63 10 4.0 6.0 0.00 0.01 0.00 60 1012.3
20170527064030 63 9 2.0 6.0 0.00 0.01 0.00 58 1012.4
20170527063531 64 30 4.0 6.0 0.00 0.01 0.00 59 1012.3
20170527063034 64 28 3.0 7.0 0.00 0.01 0.00 59 1012.2
20170527062532 64 23 3.0 6.0 0.00 0.01 0.00 59 1012.2
20170527062038 64 24 4.0 9.0 0.00 0.01 0.00 59 1012.3
20170527061520 64 49 4.0 9.0 0.00 0.01 0.00 58 1012.3
20170527061023 64 22 5.0 8.0 0.00 0.01 0.00 58 1012.1
20170527060521 64 46 4.0 8.0 0.00 0.01 0.00 58 1012.1
20170527060023 64 9 4.0 9.0 0.00 0.01 0.00 58 1012.1
20170527055524 65 37 4.0 9.0 0.00 0.01 0.00 57 1012.1
20170527055025 65 23 4.0 8.0 0.00 0.01 0.00 57 1012.0
20170527054529 65 32 3.0 8.0 0.00 0.01 0.00 57 1011.9
20170527054031 65 22 5.0 8.0 0.00 0.01 0.00 57 1011.8
20170527053534 65 14 5.0 9.0 0.00 0.01 0.00 58 1011.8
20170527053036 65 5 3.0 8.0 0.00 0.01 0.00 59 1011.7
20170527052537 65 9 3.0 8.0 0.00 0.01 0.00 59 1011.8
20170527052036 65 18 5.0 8.0 0.00 0.01 0.00 59 1011.8
20170527051538 65 14 4.0 8.0 0.00 0.01 0.00 59 1011.8
20170527051018 65 22 4.0 8.0 0.00 0.01 0.00 59 1011.7
20170527050522 66 22 5.0 8.0 0.00 0.01 0.00 58 1011.6
20170527050022 66 5 5.0 9.0 0.00 0.01 0.00 59 1011.6
20170527045535 66 22 5.0 9.0 0.00 0.01 0.01 58 1011.5
20170527045037 66 29 3.0 6.0 0.00 0.01 0.01 60 1011.4
20170527044537 65 31 3.0 6.0 0.00 0.01 0.01 61 1011.3
20170527044037 65 23 4.0 6.0 0.00 0.01 0.01 61 1011.4
20170527043520 66 19 3.0 8.0 0.00 0.01 0.01 62 1011.4
20170527043020 66 17 5.0 8.0 0.00 0.01 0.01 61 1011.4
20170527042520 66 5 4.0 6.0 0.00 0.01 0.01 63 1011.5
20170527042024 66 351 4.0 7.0 0.00 0.01 0.01 63 1011.6
20170527041526 65 344 3.0 10.0 0.00 0.01 0.01 65 1011.3
20170527041028 64 5 5.0 10.0 0.00 0.01 0.01 66 1011.3
20170527040528 64 5 4.0 5.0 0.00 0.01 0.01 68 1011.3
20170527040029 64 83 2.0 3.0 0.00 0.01 0.01 68 1011.3
20170527035525 65 83 2.0 3.0 0.00 0.01 0.01 67 1011.3
20170527035023 65 83 2.0 3.0 0.00 0.01 0.01 65 1011.2
20170527034524 65 83 1.0 3.0 0.00 0.01 0.01 65 1011.5
20170527034025 65 83 2.0 3.0 0.00 0.01 0.01 65 1011.5
20170527033528 66 83 1.0 3.0 0.00 0.01 0.01 63 1011.5
20170527033028 66 83 2.0 4.0 0.00 0.01 0.01 62 1011.4
20170527032529 66 83 2.0 4.0 0.00 0.01 0.01 61 1011.4
20170527032029 66 83 2.0 3.0 0.00 0.01 0.01 61 1011.3
20170527031530 66 83 2.0 3.0 0.00 0.01 0.01 62 1011.3
20170527031032 66 83 1.0 3.0 0.00 0.01 0.01 62 1011.1
20170527030535 67 83 2.0 3.0 0.00 0.01 0.01 60 1011.1
20170527030036 66 83 1.0 3.0 0.00 0.01 0.01 61 1011.1
20170527025537 66 83 2.0 3.0 0.00 0.01 0.01 60 1010.9
20170527025038 67 83 2.0 3.0 0.00 0.01 0.01 60 1011.0
20170527024521 67 83 2.0 3.0 0.00 0.01 0.01 60 1011.2
20170527024020 67 83 0.0 0.0 0.00 0.01 0.01 61 1011.3
20170527023520 67 83 0.0 1.0 0.00 0.01 0.01 60 1011.2
20170527023024 68 83 0.0 2.0 0.00 0.01 0.01 58 1011.1
20170527022525 67 83 0.0 2.0 0.00 0.01 0.01 60 1011.0
20170527022027 67 83 0.0 2.0 0.00 0.01 0.01 61 1010.9
20170527021527 68 83 1.0 2.0 0.00 0.01 0.01 58 1010.8
20170527021030 69 83 0.0 1.0 0.00 0.01 0.01 55 1010.7
20170527020530 69 83 0.0 0.0 0.00 0.01 0.01 56 1010.7
20170527020032 69 83 0.0 0.0 0.00 0.01 0.01 58 1010.6
20170527015534 70 83 0.0 0.0 0.00 0.01 0.01 54 1010.7
20170527015036 70 83 0.0 0.0 0.00 0.01 0.01 54 1010.7
20170527014537 70 83 0.0 1.0 0.00 0.01 0.01 56 1010.6
20170527014036 71 83 0.0 2.0 0.00 0.01 0.01 53 1010.5
20170527013533 72 83 0.0 2.0 0.00 0.01 0.01 51 1010.6
20170527013035 73 83 0.0 2.0 0.00 0.01 0.01 51 1010.6
20170527012535 74 75 0.0 3.0 0.00 0.01 0.01 47 1010.5
20170527012019 75 46 0.0 4.0 0.00 0.01 0.01 45 1010.4
20170527011523 75 46 1.0 4.0 0.00 0.01 0.01 46 1010.2
20170527011024 75 47 2.0 5.0 0.00 0.01 0.01 45 1010.2
20170527010525 76 44 2.0 6.0 0.00 0.01 0.01 44 1010.1
20170527010027 76 44 3.0 6.0 0.00 0.01 0.01 45 1010.1
20170527005528 76 51 3.0 9.0 0.00 0.01 0.01 44 1010.1
20170527005029 77 35 4.0 9.0 0.00 0.01 0.01 44 1010.1
20170527004533 77 67 1.0 6.0 0.00 0.01 0.01 43 1010.0
20170527004035 77 32 3.0 6.0 0.00 0.01 0.01 41 1009.9
20170527003536 77 50 1.0 5.0 0.00 0.01 0.01 43 1009.8
20170527003039 78 38 3.0 10.0 0.00 0.01 0.01 44 1009.8
20170527002535 78 31 3.0 10.0 0.00 0.01 0.01 43 1009.8
20170527002036 78 40 3.0 6.0 0.00 0.01 0.01 43 1009.6
20170527001536 78 48 3.0 9.0 0.00 0.01 0.01 45 1009.6
20170527001038 78 53 3.0 10.0 0.00 0.01 0.01 41 1009.6
20170527000537 78 28 4.0 10.0 0.00 0.01 0.01 46 1009.5
20170527000038 78 20 4.0 10.0 0.00 0.01 0.01 45 1009.6
20170526235519 78 351 5.0 9.0 0.00 0.01 0.01 42 1009.5
20170526235022 78 15 5.0 8.0 0.00 0.01 0.01 42 1009.5
20170526234524 78 343 3.0 6.0 0.00 0.01 0.01 47 1009.5
20170526234026 78 325 3.0 12.0 0.00 0.01 0.01 47 1009.5
20170526233526 78 17 6.0 12.0 0.00 0.01 0.01 44 1009.5
20170526233027 78 350 4.0 9.0 0.00 0.01 0.01 43 1009.5
20170526232529 78 5 4.0 11.0 0.00 0.01 0.01 44 1009.5
20170526232030 78 10 2.0 8.0 0.00 0.01 0.01 47 1009.5
20170526231529 78 319 2.0 8.0 0.00 0.01 0.01 47 1009.5
20170526231030 78 360 3.0 10.0 0.00 0.01 0.01 46 1009.5
20170526230532 78 360 6.0 10.0 0.00 0.01 0.01 45 1009.4
20170526230034 78 360 2.0 7.0 0.00 0.01 0.01 48 1009.4
20170526225535 78 45 3.0 9.0 0.00 0.01 0.01 44 1009.4
20170526225037 78 5 3.0 11.0 0.00 0.01 0.01 46 1009.5
20170526224538 78 13 6.0 11.0 0.00 0.01 0.01 44 1009.4
20170526224018 79 340 6.0 12.0 0.00 0.01 0.01 46 1009.4
20170526223522 79 51 5.0 13.0 0.00 0.01 0.01 44 1009.4
20170526223025 79 36 4.0 15.0 0.00 0.01 0.01 43 1009.4
20170526222525 79 39 5.0 15.0 0.00 0.01 0.01 46 1009.4
20170526222024 79 26 3.0 10.0 0.00 0.01 0.01 45 1009.4
20170526221527 78 5 6.0 12.0 0.00 0.01 0.01 44 1009.4
20170526221029 79 344 5.0 12.0 0.00 0.01 0.01 45 1009.5
20170526220528 79 40 6.0 11.0 0.00 0.01 0.01 47 1009.4
20170526220029 79 340 4.0 14.0 0.00 0.01 0.01 45 1009.4
20170526215530 79 9 8.0 14.0 0.00 0.01 0.01 42 1009.5
20170526215033 79 63 5.0 13.0 0.00 0.01 0.01 46 1009.4
20170526214534 79 35 7.0 13.0 0.00 0.01 0.01 43 1009.3
20170526214034 79 350 7.0 14.0 0.00 0.01 0.01 46 1009.4
20170526213537 79 310 10.0 14.0 0.00 0.01 0.01 47 1009.2
20170526213019 79 355 8.0 12.0 0.00 0.01 0.01 45 1009.4
20170526212520 79 321 8.0 12.0 0.00 0.01 0.01 49 1009.3
20170526212022 79 350 8.0 11.0 0.00 0.01 0.01 43 1009.3
20170526211524 79 26 5.0 13.0 0.00 0.01 0.01 50 1009.2
20170526211025 79 355 5.0 14.0 0.00 0.01 0.01 45 1009.4
20170526210527 79 344 8.0 14.0 0.00 0.01 0.01 50 1009.5
20170526210028 79 31 5.0 15.0 0.00 0.01 0.01 47 1009.5
20170526205525 79 22 8.0 15.0 0.00 0.01 0.01 47 1009.4
20170526205025 79 5 4.0 15.0 0.00 0.01 0.01 47 1009.5
20170526204526 78 53 10.0 15.0 0.00 0.01 0.01 48 1009.5
20170526204027 78 338 7.0 15.0 0.00 0.01 0.01 50 1009.6
20170526203531 78 333 10.0 15.0 0.00 0.01 0.01 47 1009.6
20170526203033 77 350 6.0 13.0 0.00 0.01 0.01 50 1009.5
20170526202533 76 328 7.0 17.0 0.00 0.01 0.01 49 1009.6
20170526202038 77 351 11.0 17.0 0.00 0.01 0.01 48 1009.6
20170526201520 78 345 10.0 17.0 0.00 0.01 0.01 47 1009.5
20170526201020 79 336 9.0 17.0 0.00 0.01 0.01 47 1009.4
20170526200523 78 342 8.0 15.0 0.00 0.01 0.01 49 1009.5
20170526200025 79 351 8.0 14.0 0.00 0.01 0.01 49 1009.4
20170526195526 79 333 8.0 14.0 0.00 0.01 0.01 53 1009.4
20170526195027 78 327 9.0 17.0 0.00 0.01 0.01 52 1009.3
20170526194525 78 355 10.0 17.0 0.00 0.01 0.01 48 1009.3
20170526194028 78 18 8.0 14.0 0.00 0.01 0.01 47 1009.3
20170526193530 78 343 10.0 14.0 0.00 0.01 0.01 47 1009.3
20170526193032 78 36 8.0 14.0 0.01 0.01 0.01 49 1009.4
20170526192534 78 334 10.0 14.0 0.01 0.01 0.01 50 1009.4
20170526192037 78 30 8.0 15.0 0.01 0.01 0.01 52 1009.3
20170526191533 78 26 10.0 17.0 0.01 0.01 0.01 51 1009.4
20170526191033 77 12 10.0 17.0 0.01 0.01 0.01 51 1009.4
20170526190534 77 339 10.0 16.0 0.01 0.01 0.01 54 1009.3
20170526190037 77 347 9.0 17.0 0.01 0.01 0.01 50 1009.3
20170526185519 77 15 9.0 18.0 0.01 0.01 0.01 51 1009.2
20170526185023 77 355 9.0 19.0 0.01 0.01 0.01 51 1009.4
20170526184526 77 351 12.0 17.0 0.01 0.01 0.01 53 1009.2
20170526184026 77 334 10.0 15.0 0.01 0.01 0.01 57 1009.2
20170526183525 77 344 9.0 15.0 0.00 0.00 0.00 57 1009.4
20170526183026 77 329 5.0 19.0 0.00 0.00 0.00 54 1009.2
20170526182526 76 337 10.0 19.0 0.00 0.00 0.00 57 1009.3
20170526182027 76 328 10.0 14.0 0.00 0.00 0.00 55 1009.4
20170526181527 76 355 8.0 13.0 0.00 0.00 0.00 52 1009.5
20170526181028 75 11 7.0 13.0 0.00 0.00 0.00 55 1009.5
20170526180530 75 333 8.0 13.0 0.00 0.00 0.00 60 1009.5
20170526180029 74 323 7.0 17.0 0.00 0.00 0.00 57 1009.6
20170526175531 74 345 9.0 17.0 0.00 0.00 0.00 58 1009.6
20170526175033 74 338 11.0 16.0 0.00 0.00 0.00 57 1009.5
20170526174534 74 360 10.0 16.0 0.00 0.00 0.00 57 1009.5
20170526174035 74 331 10.0 16.0 0.00 0.00 0.00 60 1009.4
20170526173535 74 18 10.0 14.0 0.00 0.00 0.00 55 1009.3
20170526173034 74 344 6.0 11.0 0.00 0.00 0.00 55 1009.3
20170526172536 74 350 7.0 14.0 0.00 0.00 0.00 57 1009.2
20170526172038 74 343 9.0 14.0 0.00 0.00 0.00 60 1009.2
20170526171539 73 360 7.0 13.0 0.00 0.00 0.00 59 1009.1
20170526171021 73 350 7.0 14.0 0.00 0.00 0.00 62 1009.1
20170526170520 73 360 9.0 18.0 0.00 0.00 0.00 62 1009.1
20170526170026 72 342 12.0 18.0 0.00 0.00 0.00 58 1009.0
20170526165529 72 336 12.0 18.0 0.00 0.00 0.00 62 1009.0
20170526165033 73 321 12.0 17.0 0.00 0.00 0.00 60 1009.0
20170526164535 73 344 7.0 15.0 0.00 0.00 0.00 67 1008.9
20170526164037 72 28 9.0 15.0 0.00 0.00 0.00 61 1008.8
20170526163539 72 336 8.0 17.0 0.00 0.00 0.00 63 1008.9
20170526163039 72 348 10.0 17.0 0.00 0.00 0.00 66 1008.9
20170526162522 72 10 13.0 16.0 0.00 0.00 0.00 61 1008.9
20170526162024 71 343 12.0 17.0 0.00 0.00 0.00 65 1008.9
20170526161520 71 317 11.0 17.0 0.00 0.00 0.00 63 1008.9
20170526161023 71 13 10.0 17.0 0.00 0.00 0.00 64 1008.7
20170526160525 70 335 10.0 16.0 0.00 0.00 0.00 63 1008.7
20170526160027 71 343 11.0 18.0 0.00 0.00 0.00 64 1008.9
20170526155528 70 355 10.0 19.0 0.00 0.00 0.00 65 1008.8
20170526155029 71 326 11.0 19.0 0.00 0.00 0.00 67 1008.9
20170526154532 70 338 14.0 17.0 0.00 0.00 0.00 67 1008.8
20170526154034 71 331 10.0 15.0 0.00 0.00 0.00 67 1008.5
20170526153537 71 333 9.0 18.0 0.00 0.00 0.00 68 1008.5
20170526153037 70 348 11.0 18.0 0.00 0.00 0.00 67 1008.5
20170526152522 70 327 11.0 19.0 0.00 0.00 0.00 71 1008.4
20170526152023 70 330 13.0 19.0 0.00 0.00 0.00 67 1008.3
20170526151525 70 329 12.0 18.0 0.00 0.00 0.00 69 1008.4
20170526151026 69 333 14.0 19.0 0.00 0.00 0.00 70 1008.3
20170526150524 69 319 13.0 18.0 0.00 0.00 0.00 70 1008.3
20170526150026 70 342 10.0 18.0 0.00 0.00 0.00 70 1008.2
20170526145528 70 334 11.0 17.0 0.00 0.00 0.00 72 1008.1
20170526145028 70 355 9.0 15.0 0.00 0.00 0.00 71 1008.0
20170526144530 70 343 7.0 15.0 0.00 0.00 0.00 73 1007.8
20170526144031 69 340 11.0 18.0 0.00 0.00 0.00 73 1007.8
20170526143533 69 317 12.0 18.0 0.00 0.00 0.00 74 1007.8
20170526143033 69 311 10.0 17.0 0.00 0.00 0.00 77 1007.9
20170526142534 69 327 11.0 17.0 0.00 0.00 0.00 79 1007.9
20170526142035 68 343 10.0 14.0 0.00 0.00 0.00 78 1007.7
20170526141536 68 328 9.0 14.0 0.00 0.00 0.00 78 1007.6
20170526141038 68 9 8.0 12.0 0.00 0.00 0.00 79 1007.5
20170526140539 68 339 8.0 12.0 0.00 0.00 0.00 81 1007.4
20170526140019 67 332 8.0 15.0 0.00 0.00 0.00 80 1007.5
20170526135537 67 330 10.0 15.0 0.00 0.00 0.00 80 1007.4
20170526135019 66 319 7.0 13.0 0.00 0.00 0.00 84 1007.2
20170526134526 65 344 8.0 13.0 0.00 0.00 0.00 82 1007.3